This demonstration page uses our WeatherBlox Daily Observations layout. Learn more.

40.92945, -100.16068

Hourly Observations for March 2, 2020

Temp ( °F °C ) Dew Point ( °F °C ) Humidity (%) Winds ( mph kmh ) Pressure ( in mb ) Visibility ( mi km ) Precip ( " mm )
12:15 am 00:15 Mostly Cloudy 35 1.5 27 -2.6 74 74 N 8 13 30.08 1019 10 16.0934 0 0
12:35 am 00:35 Cloudy 35 1.6 28 -2.5 74 74 N 9 15 30.07 1018 10 16.0934 0 0
12:55 am 00:55 Cloudy 35 1.8 27 -2.6 73 73 N 17 28 30.06 1018 10 16.0934 0 0
1:15 am 01:15 Cloudy with Light Snow 34 1.1 29 -1.6 82 82 N 13 20 30.09 1019 10 16.0934 0 0
1:35 am 01:35 Cloudy with Light Snow 32 0 31 -0.5 96 96 N 7 11 30.11 1020 1.5 2.41401 0 0
1:55 am 01:55 Cloudy with Light Snow 32 0 31 -0.4 97 97 N 10 17 30.1 1019 4 6.43736 0 0
2:15 am 02:15 Cloudy with Light Snow 32 -0.2 31 -0.8 96 96 N 13 20 30.09 1019 3 4.82802 0 0
2:35 am 02:35 Cloudy 32 -0.2 30 -1 94 94 N 9 15 30.09 1019 10 16.0934 0 0
2:55 am 02:55 Cloudy 32 0 29 -1.5 90 90 NNW 8 13 30.08 1019 10 16.0934 0.01 0.254
3:15 am 03:15 Cloudy 32 0 30 -1.3 91 91 NNW 9 15 30.08 1019 10 16.0934 0.01 0.254
3:35 am 03:35 Cloudy with Light Snow 32 -0.1 30 -1.1 93 93 NW 7 11 30.07 1018 2 3.21868 0.01 0.254
3:55 am 03:55 Mostly Cloudy 31 -0.5 29 -1.5 93 93 NNW 3 6 30.06 1018 10 16.0934 0.01 0.254
4:15 am 04:15 Partly Cloudy 31 -0.7 29 -1.5 94 94 Calm 30.06 1018 10 16.0934 0 0
4:35 am 04:35 Partly Cloudy 30 -1 29 -1.6 96 96 Calm 30.06 1018 10 16.0934 0 0
4:55 am 04:55 Clear 28 -2 28 -2.1 99 99 Calm 30.07 1018 10 16.0934 0 0
5:15 am 05:15 Clear 28 -2.2 28 -2.2 100 100 Calm 30.06 1018 7 11.26538 0 0
5:35 am 05:35 Mostly Cloudy with Mist and Fog 25 -3.8 25 -3.9 99 99 WNW 5 7 30.08 1018 1.25 2.011675 0 0
5:55 am 05:55 Clear with Mist and Fog 26 -3.6 25 -3.8 99 99 NW 6 9 30.06 1018 4 6.43736 0 0
6:15 am 06:15 Clear 23 -5.2 22 -5.7 96 96 NW 7 11 30.07 1018 10 16.0934 0 0
6:35 am 06:35 Clear 21 -6.1 20 -6.7 96 96 WNW 6 9 30.08 1019 10 16.0934 0 0
6:55 am 06:55 Clear 21 -5.9 20 -6.5 96 96 W 8 13 30.08 1019 10 16.0934 0 0
7:15 am 07:15 Sunny 21 -6 20 -6.6 96 96 WNW 3 6 30.06 1018 10 16.0934 0 0
7:35 am 07:35 Sunny 20 -6.4 20 -6.9 96 96 W 5 7 30.06 1018 10 16.0934 0 0
7:55 am 07:55 Sunny 20 -6.9 19 -7.4 96 96 Calm 30.06 1018 10 16.0934 0 0
8:15 am 08:15 Mostly Cloudy with Freezing Fog 23 -4.9 23 -5.1 99 99 Calm 30.03 1017 0.5 0.80467 0 0
8:35 am 08:35 Partly Cloudy 24 -4.5 23 -5 96 96 Calm 30.01 1016 10 16.0934 0 0
8:55 am 08:55 Sunny 27 -2.7 27 -2.9 99 99 W 3 6 30 1016 10 16.0934 0 0
9:15 am 09:15 Partly Cloudy 29 -1.8 28 -2.2 97 97 W 3 6 30 1016 10 16.0934 0 0
9:35 am 09:35 Partly Cloudy 30 -0.9 29 -1.6 95 95 WSW 5 7 29.99 1015 10 16.0934 0 0
9:55 am 09:55 Sunny 33 0.5 29 -1.7 85 85 SW 7 11 29.97 1015 10 16.0934 0 0
10:15 am 10:15 Mostly Cloudy 34 1.2 29 -1.8 81 81 WSW 6 9 29.97 1015 10 16.0934 0 0
10:35 am 10:35 Cloudy 36 2.1 30 -1.2 79 79 SW 10 17 29.96 1014 10 16.0934 0 0
10:55 am 10:55 Cloudy 37 2.5 30 -1.2 77 77 SW 13 20 29.95 1014 10 16.0934 0 0
11:15 am 11:15 Cloudy 38 3.1 30 -0.9 75 75 SW 13 20 29.93 1013 10 16.0934 0 0
11:35 am 11:35 Cloudy 38 3.1 31 -0.8 76 76 WSW 13 20 29.92 1013 10 16.0934 0 0
11:55 am 11:55 Cloudy 39 3.7 31 -0.8 73 73 SW 17 28 29.89 1012 10 16.0934 0 0
12:15 pm 12:15 Mostly Cloudy 40 4.7 31 -0.6 69 69 SSW 16 26 29.87 1012 10 16.0934 0 0
12:35 pm 12:35 Partly Cloudy 41 5.2 32 -0.2 68 68 SW 17 28 29.85 1011 10 16.0934 0 0
12:55 pm 12:55 Partly Cloudy 42 5.3 30 -0.9 65 65 WSW 15 24 29.82 1010 10 16.0934 0 0
1:15 pm 13:15 Sunny 43 6 32 0.1 66 66 SW 22 35 29.8 1009 10 16.0934 0 0
1:35 pm 13:35 Sunny 43 6.3 32 0.1 65 65 WSW 15 24 29.78 1008 10 16.0934 0 0
1:55 pm 13:55 Partly Cloudy 43 6.2 32 0 65 65 SW 18 30 29.77 1008 10 16.0934 0 0
2:15 pm 14:15 Partly Cloudy 44 6.9 32 0.2 63 63 SW 20 31 29.74 1007 10 16.0934 0 0
2:35 pm 14:35 Mostly Cloudy 44 6.6 32 0.1 64 64 SW 17 28 29.72 1007 10 16.0934 0 0
2:55 pm 14:55 Mostly Cloudy 45 7.2 33 0.5 63 63 SW 17 28 29.71 1006 10 16.0934 0 0
3:15 pm 15:15 Partly Cloudy 45 7.4 33 0.4 61 61 WSW 16 26 29.71 1006 10 16.0934 0 0
3:35 pm 15:35 Sunny 46 7.7 33 0.6 61 61 SW 17 28 29.7 1006 10 16.0934 0 0
3:55 pm 15:55 Sunny 47 8.5 34 1 60 60 WSW 14 22 29.69 1006 10 16.0934 0 0
4:15 pm 16:15 Sunny 48 8.8 34 1 58 58 WSW 14 22 29.67 1005 10 16.0934 0 0
4:35 pm 16:35 Sunny 49 9.6 34 1.2 56 56 SW 16 26 29.64 1004 10 16.0934 0 0
4:55 pm 16:55 Sunny 49 9.5 33 0.5 54 54 WSW 13 20 29.65 1004 10 16.0934 0 0
5:15 pm 17:15 Sunny 49 9.7 33 0.3 52 52 SSW 12 19 29.63 1004 10 16.0934 0 0
5:35 pm 17:35 Mostly Cloudy 50 9.8 32 0.2 52 52 SSW 8 13 29.62 1003 10 16.0934 0 0
5:55 pm 17:55 Partly Cloudy 49 9.2 32 0.1 53 53 SSW 7 11 29.63 1003 10 16.0934 0 0
6:15 pm 18:15 Sunny 49 9.3 31 -0.3 51 51 W 12 19 29.63 1003 10 16.0934 0 0
6:35 pm 18:35 Clear 47 8.3 26 -3.2 44 44 WNW 12 19 29.65 1004 10 16.0934 0 0
6:55 pm 18:55 Clear 44 6.7 26 -3.5 49 49 WNW 13 20 29.67 1005 10 16.0934 0 0
7:15 pm 19:15 Clear 43 6 26 -3.4 51 51 NW 10 17 29.7 1006 10 16.0934 0 0
7:35 pm 19:35 Clear 40 4.3 28 -2.5 62 62 WNW 7 11 29.72 1007 10 16.0934 0 0
7:55 pm 19:55 Clear 40 4.2 28 -2 64 64 NW 7 11 29.74 1007 10 16.0934 0 0
8:15 pm 20:15 Clear 41 5.1 27 -2.6 58 58 NW 9 15 29.73 1007 10 16.0934 0 0
8:35 pm 20:35 Clear 40 4.4 27 -2.8 60 60 WNW 7 11 29.74 1007 10 16.0934 0 0
8:55 pm 20:55 Partly Cloudy 38 3.3 27 -3 64 64 WNW 8 13 29.75 1008 10 16.0934 0 0
9:15 pm 21:15 Mostly Cloudy 37 3 27 -2.8 66 66 WNW 9 15 29.77 1008 10 16.0934 0 0
9:35 pm 21:35 Partly Cloudy 38 3.1 26 -3.2 64 64 WNW 9 15 29.78 1008 10 16.0934 0 0
9:55 pm 21:55 Mostly Cloudy 38 3.5 26 -3.2 62 62 WNW 9 15 29.78 1009 10 16.0934 0 0
10:15 pm 22:15 Mostly Cloudy 38 3.3 26 -3.4 62 62 WNW 7 11 29.79 1009 10 16.0934 0 0
10:35 pm 22:35 Mostly Cloudy 36 2.1 26 -3.1 69 69 WNW 8 13 29.81 1009 10 16.0934 0 0
10:55 pm 22:55 Mostly Cloudy 33 0.3 26 -3.1 78 78 WNW 3 6 29.83 1010 10 16.0934 0 0
11:15 pm 23:15 Partly Cloudy 32 0.1 26 -3.4 78 78 NW 6 9 29.85 1011 10 16.0934 0 0
11:35 pm 23:35 Clear 31 -0.5 26 -3.6 80 80 NNW 8 13 29.86 1011 10 16.0934 0 0
11:55 pm 23:55 Clear 33 0.5 25 -4 72 72 NW 12 19 29.85 1011 10 16.0934 0 0

Powered by AerisWeather